[[{"header":{"parameterUnit":"m.s-1","parameterCategory":1,"la1":30.2991,"la2":30.254,"lo1":-89.0895,"lo2":-89.0444,"dy":0.0017,"dx":0.0017,"nx":28,"ny":28,"refTime":"2024-04-04T21:00:00:Z","depth":0,"parameterNumber":2,"parameterNumberName":"U-component_of_WINDS"},"data":[0,0,0,0,0,0,0,0,0,0,0,0,0,0,0,0,0,0,0,0,0,0,0,0,0,0,0,0,0,0,0,0,0,0,0,0,0,0,0,0,0,0,0,0,0,0,0,0,0,0,0,0,0,0,0,0,0,0,3.2591,3.2593,0,3.2719,3.272,3.2722,3.2685,3.2683,3.268,3.2678,3.2812,3.2818,3.2824,0,0,0,0,0,0,0,0,0,0,0,0,0,3.232,3.2326,3.2591,3.2593,3.2594,3.2719,3.272,3.2722,3.2686,3.2683,3.268,3.2677,3.281,3.2817,3.2824,0,0,0,0,0,0,0,0,0,0,0,0,0,3.2442,3.2327,3.2591,3.2591,3.2592,3.2718,3.272,3.2723,3.2687,3.2683,3.2679,3.2675,3.2808,3.2816,3.2825,3.296,0,0,3.2853,3.2857,0,0,0,0,0,0,0,0,3.2435,3.2452,3.259,3.2591,3.2593,3.2682,3.2674,3.2802,3.2688,3.2651,3.2678,3.2673,3.2772,3.2784,3.2817,3.2966,3.2972,3.2854,3.2859,3.2863,3.2866,0,0,0,0,0,0,0,3.2427,3.2446,3.2642,3.2592,3.2594,3.2586,3.2599,3.2698,3.2732,3.2654,3.2651,3.2667,3.2772,3.2808,3.2819,3.2974,3.2854,3.2862,3.2867,3.2871,3.3242,3.3246,0,0,0,0,0,0,3.2417,3.244,3.2638,3.2646,3.2503,3.2594,3.2609,3.2658,3.2731,3.2738,3.267,3.2665,3.2795,3.2809,3.2824,3.2987,3.2863,3.2872,3.2877,3.3238,3.3243,3.3248,0,0,0,0,0,0,3.2411,3.2435,3.2633,3.2542,3.2567,3.2603,3.2658,3.2662,3.2698,3.2743,3.275,3.27,3.2792,3.2811,3.2926,3.2991,3.2876,3.2884,3.3232,3.3239,3.3245,3.3314,0,0,0,0,0,0,3.2403,3.2433,3.2483,3.2543,3.2572,3.2732,3.2662,3.2668,3.2713,3.2707,3.2773,3.278,3.279,3.2913,3.2935,3.3002,3.2891,3.3227,3.3235,3.3243,3.3306,3.3322,3.3336,0,0,0,0,0,3.2394,3.2498,3.2486,3.251,3.2635,3.2735,3.2752,3.276,3.2718,3.277,3.28,3.2778,3.2981,3.2925,3.295,3.302,3.3223,3.3233,3.3243,3.33,3.3319,3.3336,0,0,0,0,0,0,3.2445,3.2506,3.2493,3.2619,3.2672,3.2729,3.2794,3.2781,3.2848,3.284,3.2849,3.2864,3.2982,3.3013,3.295,3.3155,3.3096,3.3111,3.3131,3.315,3.3164,3.3155,3.2898,0,0,0,0,0,3.2471,3.2546,3.2595,3.2702,3.2729,3.2758,3.2802,3.2804,3.286,3.2882,3.292,3.2976,3.3053,3.3103,3.3176,3.3311,3.3325,3.3371,3.3386,3.3398,3.3412,3.3487,3.3508,3.3281,3.3281,3.328,0,0,3.2525,3.2568,3.2615,3.2714,3.2755,3.2834,3.2777,3.2862,3.2922,3.2896,3.3006,3.3037,3.31,3.3226,3.3283,3.3255,3.3478,3.3411,3.342,3.3427,3.3499,3.3521,3.354,3.3288,3.3286,3.3285,0,0,3.2665,3.2704,3.2798,3.2841,3.2904,3.2922,3.2945,3.3004,3.3023,3.3134,3.3116,3.3188,3.3319,3.3365,3.3406,3.3565,3.3548,3.3588,3.3667,3.374,3.3758,3.3774,3.3832,3.3852,3.3601,3.3602,3.3602,0,3.2725,3.2842,3.2848,3.2936,3.2981,3.296,3.3056,3.3098,3.3182,3.3214,3.3181,3.3346,3.3387,3.3524,3.3563,3.3596,3.3624,3.3581,3.3754,3.3771,3.3786,3.3841,3.3862,3.3606,3.3606,3.3605,3.3605,0,3.2913,3.2995,3.3063,3.3144,3.3197,3.3289,3.331,3.3363,3.3361,3.3383,3.3498,3.3547,3.363,3.3663,3.3662,3.3801,3.3781,3.3751,3.3692,3.3812,3.3864,3.3885,3.3613,3.3611,3.361,3.3609,0,0,3.3088,3.3172,3.3197,3.3234,3.3303,3.3367,3.3459,3.3539,3.3584,3.3644,3.3722,3.3834,3.3807,3.3853,3.3858,3.3922,3.4047,3.3885,3.3886,3.3914,3.4204,3.4227,3.4251,3.4036,3.404,3.4043,3.4199,0,3.3234,3.3393,3.3402,3.3548,3.3624,3.3607,3.3687,3.3738,3.3762,3.3832,3.3858,3.3938,3.3896,3.3924,3.3987,3.4018,3.4105,3.4007,3.411,3.4114,3.4095,3.4278,3.4302,3.4446,3.4219,3.4223,3.4225,0,3.3425,3.349,3.3643,3.3702,3.3734,3.3806,3.3881,3.3947,3.4006,3.4019,3.4072,3.4068,3.4163,3.4101,3.4234,3.4167,3.421,3.4232,3.4238,3.4248,3.4177,3.4294,3.4493,3.4515,3.4257,3.4255,3.4253,0,3.3539,3.3664,3.3772,3.3804,3.3875,3.3926,3.3959,3.4014,3.4062,3.4128,3.416,3.4237,3.4279,3.434,3.4357,3.431,3.4491,3.4429,3.4505,3.4505,3.4544,3.4542,3.4753,3.4571,3.4571,3.4571,3.457,0,3.3701,3.3796,3.3824,3.389,3.3996,3.4006,3.4111,3.4141,3.4191,3.4264,3.4253,3.4323,3.4341,3.4414,3.4429,3.4538,3.4557,3.4571,3.4574,3.4572,3.4571,3.4601,3.4591,3.4576,3.4575,3.4574,3.4573,0,3.3846,3.3868,3.3985,3.4043,3.406,3.4135,3.4186,3.4251,3.4273,3.4366,3.4389,3.4425,3.451,3.4534,3.4637,3.4647,3.4775,3.4768,3.4755,3.4755,3.483,3.4823,3.5069,3.5102,3.4898,3.49,3.4901,0,3.3948,3.402,3.4086,3.4134,3.4168,3.4245,3.4294,3.4308,3.436,3.4433,3.449,3.4574,3.4642,3.478,3.4817,3.4896,3.4892,3.4972,3.4903,3.49,3.4894,3.489,3.4898,3.4985,3.4988,3.4989,3.4991,0,3.4128,3.4135,3.4205,3.4281,3.4339,3.4399,3.4457,3.4497,3.4519,3.4578,3.4665,3.4718,3.4823,3.4907,3.4988,3.5023,3.5012,3.5012,3.5034,3.5034,3.5023,3.5031,3.4791,3.5007,3.5005,3.5004,3.5003,3.5002,3.4255,3.4318,3.4375,3.4454,3.4499,3.4553,3.4617,3.4648,3.472,3.4806,3.481,3.4905,3.4964,3.5071,3.511,3.5186,3.5162,3.5194,3.5202,3.521,3.5217,3.5011,3.5201,3.52,3.52,3.52,3.5199,0,3.4435,3.447,3.4543,3.4623,3.4686,3.4669,3.4732,3.4786,3.4869,3.4925,3.4992,3.5093,3.5175,3.5219,3.5301,3.5353,3.535,3.5375,3.5371,3.538,3.5233,3.5206,3.5376,3.5376,3.5376,3.5376,3.5375,3.5375,3.4535,3.4643,3.4658,3.4788,3.4823,3.4915,3.4953,3.5003,3.5048,3.5161,3.5229,3.5256,3.5307,3.5393,3.5469,3.5479,3.551,3.5538,3.5546,3.5408,3.539,3.5373,3.5347,3.5544,3.5545,3.5687,3.5688,3.5689]},{"header":{"parameterUnit":"m.s-1","parameterCategory":1,"la1":30.2991,"la2":30.254,"lo1":-89.0895,"lo2":-89.0444,"dy":0.0017,"dx":0.0017,"nx":28,"ny":28,"refTime":"2024-04-04T21:00:00:Z","depth":0,"parameterNumber":3,"parameterNumberName":"V-component_of_WINDS"},"data":[0,0,0,0,0,0,0,0,0,0,0,0,0,0,0,0,0,0,0,0,0,0,0,0,0,0,0,0,0,0,0,0,0,0,0,0,0,0,0,0,0,0,0,0,0,0,0,0,0,0,0,0,0,0,0,0,0,0,-0.3811,-0.3812,0,-0.3877,-0.3878,-0.3878,-0.389,-0.389,-0.3889,-0.3888,-0.3959,-0.3961,-0.3964,0,0,0,0,0,0,0,0,0,0,0,0,0,-0.3698,-0.37,-0.3811,-0.3812,-0.3812,-0.3877,-0.3878,-0.3879,-0.389,-0.389,-0.3889,-0.3888,-0.3958,-0.3961,-0.3964,0,0,0,0,0,0,0,0,0,0,0,0,0,-0.3754,-0.37,-0.3811,-0.3826,-0.3828,-0.3877,-0.3878,-0.3879,-0.389,-0.389,-0.3889,-0.3888,-0.3957,-0.3961,-0.3964,-0.4003,0,0,-0.3975,-0.3977,0,0,0,0,0,0,0,0,-0.375,-0.3758,-0.3823,-0.3825,-0.3827,-0.3874,-0.3864,-0.3921,-0.3891,-0.3867,-0.3888,-0.3888,-0.3932,-0.3937,-0.3952,-0.4006,-0.4009,-0.3975,-0.3978,-0.3979,-0.398,0,0,0,0,0,0,0,-0.3746,-0.3755,-0.3837,-0.3824,-0.3827,-0.383,-0.3837,-0.3874,-0.3903,-0.3869,-0.387,-0.3877,-0.3933,-0.3948,-0.3953,-0.401,-0.3975,-0.3979,-0.3981,-0.3982,-0.4101,-0.4102,0,0,0,0,0,0,-0.3739,-0.3752,-0.3835,-0.3839,-0.3786,-0.3833,-0.3841,-0.386,-0.3903,-0.3908,-0.3878,-0.3878,-0.3942,-0.3949,-0.3956,-0.4004,-0.3979,-0.3983,-0.3985,-0.41,-0.4101,-0.4102,0,0,0,0,0,0,-0.3737,-0.3747,-0.3832,-0.3796,-0.3807,-0.3836,-0.3857,-0.3862,-0.3877,-0.391,-0.3915,-0.3888,-0.3942,-0.3951,-0.3991,-0.4007,-0.3984,-0.3987,-0.4099,-0.41,-0.4102,-0.4101,0,0,0,0,0,0,-0.3734,-0.3746,-0.376,-0.3796,-0.3809,-0.3866,-0.3858,-0.3864,-0.3883,-0.3883,-0.3921,-0.3926,-0.3942,-0.3986,-0.3995,-0.4011,-0.399,-0.4098,-0.41,-0.4101,-0.41,-0.4103,-0.4105,0,0,0,0,0,-0.373,-0.3758,-0.3761,-0.3771,-0.3827,-0.3866,-0.3874,-0.3891,-0.3884,-0.3899,-0.392,-0.3925,-0.4004,-0.399,-0.4,-0.4018,-0.4097,-0.4099,-0.4101,-0.4099,-0.4102,-0.4105,0,0,0,0,0,0,-0.3724,-0.3763,-0.3766,-0.3807,-0.3833,-0.3868,-0.3888,-0.3893,-0.3923,-0.3922,-0.3942,-0.3951,-0.399,-0.4008,-0.3992,-0.4058,-0.405,-0.4054,-0.4045,-0.4048,-0.405,-0.4045,-0.3993,0,0,0,0,0,-0.3728,-0.3755,-0.3788,-0.3821,-0.3834,-0.3858,-0.3876,-0.3887,-0.3915,-0.3927,-0.3951,-0.3979,-0.401,-0.403,-0.406,-0.4103,-0.4112,-0.4121,-0.4123,-0.4125,-0.4128,-0.4153,-0.4157,-0.411,-0.411,-0.411,0,0,-0.3735,-0.376,-0.3776,-0.382,-0.3842,-0.3871,-0.3868,-0.3899,-0.3921,-0.3932,-0.3971,-0.399,-0.4023,-0.4064,-0.4084,-0.408,-0.4143,-0.4128,-0.4129,-0.4131,-0.4155,-0.416,-0.4164,-0.4111,-0.4111,-0.4111,0,0,-0.3764,-0.3785,-0.3814,-0.3836,-0.3868,-0.3885,-0.3892,-0.3926,-0.3939,-0.3978,-0.3987,-0.4014,-0.4067,-0.4091,-0.4109,-0.4147,-0.4153,-0.4157,-0.4169,-0.4193,-0.4196,-0.42,-0.4213,-0.4218,-0.416,-0.416,-0.416,0,-0.3769,-0.3813,-0.3829,-0.386,-0.3879,-0.389,-0.392,-0.3941,-0.3982,-0.3995,-0.3991,-0.4058,-0.4081,-0.4128,-0.4137,-0.4152,-0.4162,-0.4152,-0.4194,-0.4198,-0.4201,-0.4215,-0.422,-0.416,-0.416,-0.416,-0.416,0,-0.3818,-0.3848,-0.3868,-0.3907,-0.3928,-0.3959,-0.3981,-0.4001,-0.401,-0.4027,-0.4068,-0.4096,-0.4132,-0.4144,-0.4154,-0.4193,-0.419,-0.419,-0.4182,-0.4206,-0.4219,-0.4224,-0.4161,-0.4161,-0.4161,-0.416,0,0,-0.3845,-0.3892,-0.3899,-0.3917,-0.3953,-0.3978,-0.4009,-0.4044,-0.4061,-0.4089,-0.4116,-0.4161,-0.4161,-0.4182,-0.4195,-0.4215,-0.4244,-0.4212,-0.4213,-0.4217,-0.429,-0.429,-0.4295,-0.4248,-0.4249,-0.4249,-0.4287,0,-0.3878,-0.3933,-0.3949,-0.3996,-0.4024,-0.4035,-0.4062,-0.4088,-0.4105,-0.4132,-0.4152,-0.4183,-0.418,-0.4193,-0.4214,-0.4236,-0.4258,-0.4233,-0.4274,-0.4275,-0.4265,-0.4302,-0.4302,-0.4336,-0.4292,-0.4293,-0.4294,0,-0.3924,-0.3952,-0.4001,-0.4034,-0.4047,-0.4071,-0.4104,-0.413,-0.416,-0.4171,-0.4195,-0.4205,-0.424,-0.423,-0.4278,-0.426,-0.4278,-0.4291,-0.4293,-0.4298,-0.4286,-0.4308,-0.4348,-0.4353,-0.4302,-0.4301,-0.43,0,-0.3939,-0.3989,-0.4025,-0.404,-0.4079,-0.4096,-0.4114,-0.4143,-0.4163,-0.4192,-0.4206,-0.4239,-0.4258,-0.4284,-0.4304,-0.4295,-0.435,-0.4342,-0.4361,-0.4361,-0.4372,-0.4371,-0.4415,-0.4383,-0.4383,-0.4383,-0.4383,0,-0.3974,-0.4004,-0.4032,-0.4054,-0.4088,-0.4107,-0.4141,-0.4159,-0.4185,-0.4211,-0.4223,-0.4248,-0.4272,-0.4301,-0.4317,-0.4354,-0.4363,-0.4373,-0.4377,-0.4372,-0.4371,-0.4384,-0.4383,-0.4385,-0.4384,-0.4384,-0.4384,0,-0.3996,-0.4016,-0.4056,-0.409,-0.41,-0.4123,-0.4153,-0.4176,-0.4193,-0.4227,-0.4236,-0.4264,-0.4298,-0.432,-0.4364,-0.4375,-0.4416,-0.4419,-0.4405,-0.4407,-0.4425,-0.4423,-0.448,-0.4488,-0.445,-0.4451,-0.4451,0,-0.4018,-0.4041,-0.4077,-0.4095,-0.4112,-0.4142,-0.4162,-0.4181,-0.4202,-0.4238,-0.4257,-0.4292,-0.432,-0.4375,-0.44,-0.4434,-0.4438,-0.4456,-0.4443,-0.4438,-0.4439,-0.4437,-0.444,-0.4458,-0.4458,-0.4458,-0.4458,0,-0.4053,-0.4062,-0.409,-0.4122,-0.4145,-0.4172,-0.4198,-0.4213,-0.4237,-0.426,-0.4294,-0.4317,-0.4361,-0.4396,-0.4432,-0.4452,-0.446,-0.4462,-0.4468,-0.4464,-0.4455,-0.446,-0.4411,-0.4461,-0.446,-0.446,-0.446,-0.446,-0.4076,-0.4097,-0.4126,-0.4157,-0.4179,-0.4203,-0.4226,-0.4246,-0.4275,-0.4312,-0.4322,-0.4358,-0.4389,-0.4438,-0.4458,-0.4487,-0.4485,-0.4494,-0.4497,-0.4499,-0.4499,-0.445,-0.4494,-0.4494,-0.4494,-0.4494,-0.4494,0,-0.4113,-0.4131,-0.416,-0.4196,-0.4221,-0.4224,-0.4254,-0.4275,-0.4306,-0.4333,-0.4361,-0.4402,-0.4435,-0.4463,-0.4498,-0.4517,-0.4521,-0.4525,-0.4524,-0.4529,-0.4499,-0.449,-0.4521,-0.4521,-0.4521,-0.4521,-0.4521,-0.4521,-0.4134,-0.417,-0.4183,-0.423,-0.4249,-0.4284,-0.43,-0.4323,-0.4345,-0.4389,-0.4417,-0.4434,-0.4462,-0.4499,-0.4531,-0.4538,-0.4551,-0.4554,-0.4562,-0.4534,-0.4531,-0.4528,-0.452,-0.4556,-0.4557,-0.459,-0.459,-0.459]}]]